EW5660 Weather Reports


Display with metric or nautical units.
time (UTC)temp
F
wind
direction
speed
MPH
gust
MPH
rain 1hr
in
rain 24hr
in
rain mn
in
humidity
%
barometer
mb
20260510214202 58 290 6.0 13.0 0.00 0.00 0.00 34 1017.9
20260510214040 58 303 3.0 13.0 0.00 0.00 0.00 34 1017.9
20260510213917 58 273 3.0 13.0 0.00 0.00 0.00 34 1017.9
20260510213755 58 329 6.0 13.0 0.00 0.00 0.00 34 1017.9
20260510213637 58 269 9.0 13.0 0.00 0.00 0.00 33 1017.8
20260510213458 58 298 8.0 13.0 0.00 0.00 0.00 33 1017.8
20260510213336 58 282 8.0 13.0 0.00 0.00 0.00 34 1017.8
20260510213214 58 293 9.0 13.0 0.00 0.00 0.00 33 1017.9
20260510213052 58 317 5.0 13.0 0.00 0.00 0.00 35 1017.8
20260510212913 58 294 3.0 12.0 0.00 0.00 0.00 34 1017.8
20260510212728 58 341 5.0 16.0 0.00 0.00 0.00 34 1017.7
20260510212546 58 303 5.0 16.0 0.00 0.00 0.00 34 1017.7
20260510212423 58 312 8.0 16.0 0.00 0.00 0.00 33 1017.7
20260510212306 58 296 7.0 16.0 0.00 0.00 0.00 34 1017.7
20260510212142 58 298 5.0 16.0 0.00 0.00 0.00 33 1017.7
20260510212020 58 231 6.0 16.0 0.00 0.00 0.00 33 1017.7
20260510211858 58 258 6.0 16.0 0.00 0.00 0.00 34 1017.7
20260510211714 58 272 9.0 16.0 0.00 0.00 0.00 33 1017.7
20260510211555 58 289 9.0 16.0 0.00 0.00 0.00 32 1017.6
20260510211432 58 306 10.0 16.0 0.00 0.00 0.00 32 1017.6
20260510211310 58 275 10.0 16.0 0.00 0.00 0.00 33 1017.6
20260510211148 58 297 10.0 15.0 0.00 0.00 0.00 32 1017.6
20260510211031 58 302 8.0 15.0 0.00 0.00 0.00 33 1017.6
20260510210908 58 329 8.0 15.0 0.00 0.00 0.00 33 1017.6
20260510210745 58 320 9.0 15.0 0.00 0.00 0.00 33 1017.5
20260510210622 58 317 9.0 19.0 0.00 0.00 0.00 33 1017.6
20260510210502 58 321 8.0 19.0 0.00 0.00 0.00 32 1017.5
20260510210340 58 246 8.0 19.0 0.00 0.00 0.00 32 1017.5
20260510210217 58 244 10.0 19.0 0.00 0.00 0.00 32 1017.4
20260510210100 58 301 10.0 19.0 0.00 0.00 0.00 32 1017.5
20260510205937 58 273 10.0 19.0 0.00 0.00 0.00 33 1017.5
20260510205818 58 248 9.0 13.0 0.00 0.00 0.00 33 1017.4
20260510205701 58 290 7.0 11.0 0.00 0.00 0.00 34 1017.5
20260510205539 58 302 6.0 11.0 0.00 0.00 0.00 33 1017.3
20260510205355 58 290 6.0 11.0 0.00 0.00 0.00 33 1017.4
20260510205215 58 283 5.0 14.0 0.00 0.00 0.00 32 1017.4
20260510205053 58 290 7.0 14.0 0.00 0.00 0.00 32 1017.4
20260510204935 58 236 6.0 14.0 0.00 0.00 0.00 34 1017.4
20260510204816 58 310 7.0 14.0 0.00 0.00 0.00 33 1017.4
20260510204658 58 331 8.0 14.0 0.00 0.00 0.00 33 1017.4
20260510204538 58 313 9.0 14.0 0.00 0.00 0.00 33 1017.4
20260510204414 58 289 9.0 13.0 0.00 0.00 0.00 33 1017.4
20260510204252 58 267 5.0 12.0 0.00 0.00 0.00 32 1017.5
20260510204108 58 267 4.0 12.0 0.00 0.00 0.00 33 1017.4
20260510203950 58 267 5.0 12.0 0.00 0.00 0.00 33 1017.4
20260510203827 58 277 6.0 12.0 0.00 0.00 0.00 32 1017.5
20260510203705 58 257 7.0 12.0 0.00 0.00 0.00 32 1017.5
20260510203543 58 296 6.0 12.0 0.00 0.00 0.00 33 1017.6
20260510203424 58 333 7.0 12.0 0.00 0.00 0.00 32 1017.5
20260510203302 58 316 8.0 13.0 0.00 0.00 0.00 32 1017.5
20260510203141 58 291 7.0 13.0 0.00 0.00 0.00 33 1017.5
20260510203019 58 273 7.0 13.0 0.00 0.00 0.00 33 1017.5
20260510202859 58 300 6.0 13.0 0.00 0.00 0.00 34 1017.6
20260510202738 58 303 6.0 13.0 0.00 0.00 0.00 33 1017.5
20260510202614 58 283 10.0 13.0 0.00 0.00 0.00 34 1017.6
20260510202436 58 278 7.0 12.0 0.00 0.00 0.00 36 1017.5
20260510202313 58 303 4.0 10.0 0.00 0.00 0.00 36 1017.5
20260510202134 58 53 3.0 10.0 0.00 0.00 0.00 36 1017.6
20260510202017 57 342 3.0 10.0 0.00 0.00 0.00 35 1017.7
20260510201854 57 307 5.0 12.0 0.00 0.00 0.00 35 1017.7
20260510201734 57 271 4.0 12.0 0.00 0.00 0.00 35 1017.7
20260510201616 57 292 3.0 12.0 0.00 0.00 0.00 34 1017.7
20260510201454 57 277 4.0 12.0 0.00 0.00 0.00 33 1017.7
20260510201332 57 268 7.0 12.0 0.00 0.00 0.00 35 1017.9
20260510201208 57 263 8.0 12.0 0.00 0.00 0.00 34 1017.8
20260510201051 57 284 7.0 12.0 0.00 0.00 0.00 35 1017.9
20260510200907 57 312 7.0 16.0 0.00 0.00 0.00 35 1017.9
20260510200744 57 306 6.0 16.0 0.00 0.00 0.00 35 1017.9
20260510200622 57 49 7.0 16.0 0.00 0.00 0.00 34 1017.8
20260510200500 57 292 7.0 16.0 0.00 0.00 0.00 36 1017.8
20260510200342 57 290 7.0 16.0 0.00 0.00 0.00 35 1017.8
20260510200220 57 328 11.0 16.0 0.00 0.00 0.00 34 1017.8
20260510200058 57 284 8.0 16.0 0.00 0.00 0.00 34 1017.8
20260510195935 57 290 8.0 14.0 0.00 0.00 0.00 34 1017.8
20260510195816 57 283 8.0 14.0 0.00 0.00 0.00 34 1017.9
20260510195632 57 284 8.0 13.0 0.00 0.00 0.00 34 1017.8
20260510195511 57 321 6.0 12.0 0.00 0.00 0.00 34 1017.9
20260510195332 57 300 5.0 10.0 0.00 0.00 0.00 34 1017.9
20260510195214 57 319 4.0 10.0 0.00 0.00 0.00 35 1017.9
20260510195052 57 350 5.0 11.0 0.00 0.00 0.00 35 1017.9
20260510194930 57 298 4.0 11.0 0.00 0.00 0.00 35 1017.9
20260510194809 57 309 3.0 12.0 0.00 0.00 0.00 35 1017.9
20260510194636 57 327 3.0 12.0 0.00 0.00 0.00 34 1017.9
20260510194512 57 355 6.0 12.0 0.00 0.00 0.00 33 1018.0
20260510194329 57 310 6.0 12.0 0.00 0.00 0.00 33 1018.0
20260510194206 58 279 6.0 12.0 0.00 0.00 0.00 33 1018.0
20260510194044 58 15 7.0 12.0 0.00 0.00 0.00 34 1018.1
20260510193924 58 360 6.0 10.0 0.00 0.00 0.00 35 1018.0
20260510193802 58 5 3.0 7.0 0.00 0.00 0.00 35 1018.0
20260510193617 57 40 3.0 7.0 0.00 0.00 0.00 34 1018.0
20260510193455 57 304 3.0 6.0 0.00 0.00 0.00 35 1018.0
20260510193322 57 307 4.0 9.0 0.00 0.00 0.00 33 1018.0
20260510193159 57 305 2.0 9.0 0.00 0.00 0.00 35 1018.0
20260510193037 57 298 3.0 14.0 0.00 0.00 0.00 34 1018.0
20260510192915 57 306 3.0 14.0 0.00 0.00 0.00 34 1018.0
20260510192757 57 259 4.0 14.0 0.00 0.00 0.00 34 1018.1
20260510192637 57 294 5.0 14.0 0.00 0.00 0.00 33 1018.1
20260510192514 57 322 6.0 14.0 0.00 0.00 0.00 33 1018.0
20260510192352 57 331 7.0 14.0 0.00 0.00 0.00 33 1018.0
20260510192234 57 294 9.0 14.0 0.00 0.00 0.00 33 1018.0
20260510192112 57 290 7.0 14.0 0.00 0.00 0.00 33 1018.0
20260510191949 57 284 6.0 14.0 0.00 0.00 0.00 34 1018.0
20260510191831 57 331 7.0 14.0 0.00 0.00 0.00 33 1018.0
20260510191709 57 307 8.0 14.0 0.00 0.00 0.00 33 1018.0
20260510191550 57 273 9.0 14.0 0.00 0.00 0.00 33 1017.9
20260510191407 57 296 8.0 13.0 0.00 0.00 0.00 33 1017.9
20260510191245 57 289 8.0 13.0 0.00 0.00 0.00 33 1017.9
20260510191123 58 289 7.0 13.0 0.00 0.00 0.00 34 1018.0
20260510191004 57 298 6.0 13.0 0.00 0.00 0.00 34 1018.0
20260510190842 57 298 8.0 13.0 0.00 0.00 0.00 34 1018.0
20260510190719 57 300 10.0 13.0 0.00 0.00 0.00 34 1018.0
20260510190557 57 273 7.0 11.0 0.00 0.00 0.00 35 1018.0
20260510190439 57 317 5.0 11.0 0.00 0.00 0.00 34 1017.9
20260510190315 57 309 4.0 10.0 0.00 0.00 0.00 35 1018.0
20260510190153 56 314 4.0 11.0 0.00 0.00 0.00 34 1018.0
20260510190031 56 262 6.0 11.0 0.00 0.00 0.00 33 1018.1
20260510185909 56 295 7.0 11.0 0.00 0.00 0.00 34 1018.1
20260510185751 56 327 6.0 11.0 0.00 0.00 0.00 33 1018.1
20260510185626 56 302 7.0 14.0 0.00 0.00 0.00 33 1018.1
20260510185504 56 242 8.0 14.0 0.00 0.00 0.00 32 1018.2
20260510185321 57 240 6.0 14.0 0.00 0.00 0.00 32 1018.2
20260510185202 57 261 5.0 14.0 0.00 0.00 0.00 33 1018.2
20260510185039 57 276 7.0 14.0 0.00 0.00 0.00 33 1018.2
20260510184917 57 287 9.0 14.0 0.00 0.00 0.00 33 1018.2
20260510184755 57 290 6.0 13.0 0.00 0.00 0.00 33 1018.1
20260510184637 57 280 6.0 13.0 0.00 0.00 0.00 33 1018.2
20260510184513 57 5 7.0 16.0 0.00 0.01 0.00 32 1018.1
20260510184353 57 248 8.0 16.0 0.00 0.01 0.00 33 1018.1
20260510184211 57 264 7.0 16.0 0.00 0.01 0.00 32 1018.1
20260510184027 57 233 7.0 18.0 0.00 0.01 0.00 32 1018.1
20260510183908 57 283 9.0 19.0 0.00 0.01 0.00 32 1018.0
20260510183745 57 280 8.0 19.0 0.00 0.01 0.00 31 1018.0
20260510183622 57 280 9.0 19.0 0.00 0.01 0.00 31 1018.0
20260510183439 57 279 8.0 19.0 0.00 0.01 0.00 32 1018.0
20260510183320 57 290 10.0 19.0 0.00 0.01 0.00 32 1018.0
20260510183157 57 282 12.0 19.0 0.00 0.01 0.00 32 1017.9
20260510183035 57 254 8.0 14.0 0.00 0.01 0.00 33 1017.9
20260510182912 57 295 6.0 16.0 0.00 0.01 0.00 32 1017.9
20260510182753 57 300 4.0 16.0 0.00 0.01 0.00 31 1017.9
20260510182632 57 277 5.0 16.0 0.00 0.01 0.00 31 1018.0
20260510182509 57 252 8.0 16.0 0.00 0.01 0.00 31 1018.0
20260510182326 57 227 9.0 16.0 0.00 0.01 0.00 32 1018.0
20260510182203 57 293 9.0 16.0 0.00 0.01 0.00 33 1018.0
20260510182023 57 292 7.0 12.0 0.00 0.01 0.00 33 1018.0
20260510181901 57 270 6.0 14.0 0.00 0.01 0.00 34 1018.0
20260510181739 57 291 6.0 14.0 0.00 0.01 0.00 34 1017.9
20260510181615 56 342 5.0 14.0 0.00 0.01 0.00 35 1017.9
20260510181457 56 284 7.0 14.0 0.00 0.01 0.00 32 1017.9
20260510181334 56 292 8.0 14.0 0.00 0.01 0.00 32 1017.8
20260510181211 56 325 9.0 14.0 0.00 0.01 0.00 31 1017.8
20260510181049 57 311 8.0 14.0 0.00 0.01 0.00 33 1017.9
20260510180931 57 360 9.0 14.0 0.00 0.01 0.00 33 1017.8
20260510180809 57 327 8.0 15.0 0.00 0.01 0.00 32 1017.9
20260510180646 57 282 5.0 15.0 0.00 0.01 0.00 32 1017.8
20260510180524 57 310 4.0 15.0 0.00 0.01 0.00 32 1017.7
20260510180340 57 290 5.0 15.0 0.00 0.01 0.00 32 1017.8
20260510180200 57 230 8.0 15.0 0.00 0.01 0.00 33 1017.8
20260510180016 56 244 9.0 15.0 0.00 0.01 0.00 32 1017.8
20260510175859 57 254 8.0 15.0 0.00 0.01 0.00 33 1017.8
20260510175736 57 306 8.0 15.0 0.00 0.01 0.00 32 1017.9
20260510175602 56 295 6.0 15.0 0.00 0.01 0.00 32 1017.8
20260510175418 56 281 8.0 15.0 0.00 0.01 0.00 30 1017.7
20260510175256 57 290 10.0 15.0 0.00 0.01 0.00 31 1017.7
20260510175112 57 298 9.0 14.0 0.00 0.01 0.00 31 1017.7
20260510174932 57 283 5.0 13.0 0.00 0.01 0.00 31 1017.7
20260510174809 57 229 3.0 13.0 0.00 0.01 0.00 31 1017.5
20260510174625 56 287 6.0 13.0 0.00 0.01 0.00 32 1017.7
20260510174440 56 300 7.0 13.0 0.00 0.01 0.00 30 1017.7
20260510174301 57 290 8.0 13.0 0.00 0.01 0.00 30 1017.7
20260510174137 57 257 7.0 11.0 0.00 0.01 0.00 31 1017.7
20260510174016 57 279 7.0 11.0 0.00 0.01 0.00 30 1017.7
20260510173858 57 293 6.0 11.0 0.00 0.01 0.00 31 1017.6
20260510173740 56 297 6.0 11.0 0.00 0.01 0.00 30 1017.6
20260510173621 56 298 7.0 10.0 0.00 0.01 0.00 31 1017.6
20260510173438 56 287 5.0 14.0 0.00 0.01 0.00 32 1017.7
20260510173320 56 282 6.0 14.0 0.00 0.01 0.00 31 1017.7
20260510173158 56 302 5.0 15.0 0.00 0.01 0.00 31 1017.7
20260510173019 56 344 6.0 15.0 0.00 0.01 0.00 30 1017.7
20260510172858 56 286 7.0 15.0 0.00 0.01 0.00 32 1017.7
20260510172740 56 311 8.0 15.0 0.00 0.01 0.00 30 1017.7
20260510172617 56 348 7.0 15.0 0.00 0.01 0.00 31 1017.7
20260510172457 56 338 7.0 15.0 0.00 0.01 0.00 32 1017.7
20260510172314 56 332 5.0 14.0 0.00 0.01 0.00 32 1017.7
20260510172156 56 265 4.0 14.0 0.00 0.01 0.00 32 1017.7
20260510172032 56 340 6.0 14.0 0.00 0.01 0.00 32 1017.7
20260510171910 56 267 7.0 20.0 0.00 0.01 0.00 33 1017.7
20260510171752 56 296 8.0 20.0 0.00 0.01 0.00 31 1017.7
20260510171608 56 279 9.0 20.0 0.00 0.01 0.00 33 1017.8
20260510171448 56 336 7.0 20.0 0.00 0.01 0.00 32 1017.7
20260510171305 56 313 8.0 20.0 0.00 0.01 0.00 31 1017.7
20260510171147 56 295 9.0 20.0 0.00 0.01 0.00 33 1017.7
20260510171025 56 244 5.0 15.0 0.00 0.01 0.00 33 1017.7
20260510170903 55 275 2.0 18.0 0.00 0.01 0.00 32 1017.7
20260510170741 55 232 4.0 20.0 0.00 0.01 0.00 33 1017.7
20260510170623 55 234 6.0 20.0 0.00 0.01 0.00 34 1017.8
20260510170504 55 293 8.0 20.0 0.00 0.01 0.00 33 1017.8
20260510170342 55 302 8.0 20.0 0.00 0.01 0.00 33 1017.8
20260510170218 55 251 7.0 20.0 0.00 0.01 0.00 34 1017.8
20260510165942 55 307 6.0 14.0 0.00 0.01 0.00 36 1017.9
20260510165820 55 296 5.0 10.0 0.00 0.01 0.00 36 1017.9
20260510165657 55 311 6.0 10.0 0.00 0.01 0.00 36 1017.8
20260510165538 55 35 6.0 10.0 0.00 0.01 0.00 36 1017.8
20260510165420 55 342 7.0 11.0 0.00 0.01 0.00 36 1017.8
20260510165258 55 309 6.0 12.0 0.00 0.01 0.00 35 1017.8
20260510165136 55 327 5.0 12.0 0.00 0.01 0.00 35 1017.8
20260510165013 55 316 4.0 12.0 0.00 0.01 0.00 34 1017.9
20260510164839 55 342 4.0 12.0 0.00 0.01 0.00 35 1017.9
20260510164716 55 355 5.0 12.0 0.00 0.01 0.00 36 1017.9
20260510164559 55 300 7.0 12.0 0.00 0.01 0.00 34 1018.0
20260510164440 55 327 9.0 12.0 0.00 0.01 0.00 36 1018.0
20260510164321 55 306 9.0 13.0 0.00 0.01 0.00 34 1017.9
20260510164158 55 309 6.0 13.0 0.00 0.01 0.00 35 1017.9
20260510164041 55 299 7.0 13.0 0.00 0.01 0.00 35 1018.0
20260510163917 55 294 6.0 14.0 0.00 0.01 0.00 36 1017.9
20260510163736 55 343 5.0 14.0 0.00 0.01 0.00 36 1017.8
20260510163555 54 324 8.0 14.0 0.00 0.01 0.00 36 1017.8
20260510163433 54 347 9.0 14.0 0.00 0.01 0.00 35 1017.8
20260510163313 55 329 9.0 14.0 0.00 0.01 0.00 35 1017.8
20260510163151 55 298 8.0 14.0 0.00 0.01 0.00 35 1017.8
20260510163032 55 298 7.0 13.0 0.00 0.01 0.00 36 1017.8
20260510162909 55 313 7.0 13.0 0.00 0.01 0.00 36 1017.8
20260510162747 54 311 7.0 12.0 0.00 0.01 0.00 37 1017.8
20260510162625 54 336 6.0 12.0 0.00 0.01 0.00 35 1017.7
20260510162506 54 325 5.0 13.0 0.00 0.01 0.00 36 1017.7
20260510162344 54 297 5.0 16.0 0.00 0.01 0.00 36 1017.8
20260510162205 54 350 6.0 16.0 0.00 0.01 0.00 36 1017.9
20260510162043 54 329 6.0 16.0 0.00 0.01 0.00 37 1017.8
20260510161921 54 290 6.0 16.0 0.00 0.01 0.00 38 1017.8
20260510161803 54 342 9.0 16.0 0.00 0.01 0.00 37 1017.8
20260510161641 54 305 9.0 16.0 0.00 0.01 0.00 36 1017.8
20260510161519 54 290 6.0 11.0 0.00 0.01 0.00 38 1017.7
20260510161356 54 288 6.0 10.0 0.00 0.01 0.00 37 1017.7
20260510161223 54 331 5.0 10.0 0.00 0.01 0.00 38 1017.7
20260510161100 54 251 3.0 14.0 0.00 0.01 0.00 39 1017.8
20260510160941 54 306 4.0 14.0 0.00 0.01 0.00 41 1017.8
20260510160823 54 300 3.0 14.0 0.00 0.01 0.00 40 1017.8
20260510160705 53 22 2.0 14.0 0.00 0.01 0.00 39 1017.7
20260510160543 53 26 5.0 14.0 0.00 0.01 0.00 39 1017.8
20260510160421 53 291 9.0 14.0 0.00 0.01 0.00 37 1017.7
20260510160257 53 303 8.0 14.0 0.00 0.01 0.00 37 1017.7
20260510160140 54 331 7.0 14.0 0.00 0.01 0.00 40 1017.7
20260510160017 53 355 4.0 14.0 0.00 0.01 0.00 40 1017.7
20260510155855 53 10 5.0 15.0 0.00 0.01 0.00 39 1017.7
20260510155734 53 66 8.0 15.0 0.00 0.01 0.00 39 1017.7
20260510155550 54 18 8.0 15.0 0.00 0.01 0.00 38 1017.7
20260510155431 54 16 7.0 15.0 0.00 0.01 0.00 39 1017.7
20260510155313 53 355 5.0 15.0 0.00 0.01 0.00 39 1017.8
20260510155151 53 293 7.0 15.0 0.00 0.01 0.00 38 1017.8
20260510155029 53 22 8.0 13.0 0.00 0.01 0.00 37 1017.8
20260510154849 53 319 5.0 13.0 0.00 0.01 0.00 38 1017.7
20260510154727 53 308 7.0 13.0 0.00 0.01 0.00 38 1017.7
20260510154549 53 307 5.0 13.0 0.00 0.01 0.00 39 1017.7
20260510154424 53 344 8.0 13.0 0.00 0.01 0.00 37 1017.7
20260510154306 53 326 7.0 13.0 0.00 0.01 0.00 40 1017.7
20260510154147 53 360 4.0 12.0 0.00 0.01 0.00 40 1017.7
20260510154024 53 331 5.0 12.0 0.00 0.01 0.00 39 1017.7
20260510153901 53 305 7.0 12.0 0.00 0.01 0.00 39 1017.7
20260510153738 53 11 6.0 12.0 0.00 0.01 0.00 40 1017.7
20260510153620 53 278 6.0 10.0 0.00 0.01 0.00 39 1017.6
20260510153458 53 263 5.0 15.0 0.00 0.01 0.00 41 1017.6
20260510153334 52 217 4.0 15.0 0.00 0.01 0.00 41 1017.6
20260510153212 52 337 4.0 15.0 0.00 0.01 0.00 41 1017.6
20260510153053 52 311 5.0 15.0 0.00 0.01 0.00 40 1017.6
20260510152932 52 327 6.0 15.0 0.00 0.01 0.00 40 1017.6
20260510152809 52 302 8.0 15.0 0.00 0.01 0.00 40 1017.5
20260510152646 52 242 7.0 14.0 0.00 0.01 0.00 40 1017.5
20260510152528 52 250 7.0 14.0 0.00 0.01 0.00 42 1017.6
20260510152410 52 325 5.0 13.0 0.00 0.01 0.00 43 1017.5
20260510152248 52 35 5.0 16.0 0.00 0.01 0.00 41 1017.5
20260510152125 52 343 7.0 16.0 0.00 0.01 0.00 42 1017.5
20260510152003 52 317 5.0 16.0 0.00 0.01 0.00 42 1017.4
20260510151823 52 338 5.0 16.0 0.00 0.01 0.00 41 1017.4
20260510151703 52 310 8.0 16.0 0.00 0.01 0.00 41 1017.4
20260510151540 52 315 9.0 16.0 0.00 0.01 0.00 41 1017.4
20260510151417 52 288 6.0 10.0 0.00 0.01 0.00 41 1017.4
20260510151238 52 330 7.0 10.0 0.00 0.01 0.00 41 1017.4
20260510151120 52 341 4.0 10.0 0.00 0.01 0.00 43 1017.4
20260510150956 52 19 5.0 10.0 0.00 0.01 0.00 43 1017.4
20260510150813 52 304 7.0 10.0 0.00 0.01 0.00 43 1017.4
20260510150633 52 298 5.0 10.0 0.00 0.01 0.00 43 1017.4
20260510150511 51 301 2.0 11.0 0.00 0.01 0.00 41 1017.4
20260510150349 52 305 5.0 11.0 0.00 0.01 0.00 42 1017.4
20260510150231 52 306 6.0 11.0 0.00 0.01 0.00 43 1017.4
20260510150109 51 334 6.0 12.0 0.00 0.01 0.00 45 1017.4
20260510145951 51 339 5.0 12.0 0.00 0.01 0.00 46 1017.4
20260510145829 51 36 6.0 12.0 0.00 0.01 0.00 45 1017.3
20260510145706 51 22 7.0 12.0 0.00 0.01 0.00 44 1017.3
20260510145526 51 343 6.0 12.0 0.00 0.01 0.00 43 1017.3
20260510145408 51 323 6.0 12.0 0.00 0.01 0.00 43 1017.3
20260510145245 51 296 8.0 13.0 0.00 0.01 0.00 44 1017.3
20260510145125 51 298 8.0 13.0 0.00 0.01 0.00 43 1017.3
20260510145002 51 279 8.0 13.0 0.00 0.01 0.00 43 1017.3
20260510144843 51 346 8.0 13.0 0.00 0.01 0.00 43 1017.3
20260510144721 51 331 8.0 13.0 0.00 0.01 0.00 43 1017.2
20260510144600 51 277 9.0 13.0 0.00 0.01 0.00 42 1017.2
20260510144438 51 306 8.0 13.0 0.00 0.01 0.00 42 1017.2
20260510144302 51 302 6.0 12.0 0.00 0.01 0.00 44 1017.2
20260510144139 51 300 5.0 12.0 0.00 0.01 0.00 45 1017.1
20260510144017 51 346 7.0 12.0 0.00 0.01 0.00 45 1017.1
20260510143833 51 283 5.0 12.0 0.00 0.01 0.00 47 1017.1
20260510143711 51 11 4.0 11.0 0.00 0.01 0.00 46 1017.0
20260510143553 51 348 4.0 11.0 0.00 0.01 0.00 47 1017.0
20260510143430 51 355 4.0 11.0 0.00 0.01 0.00 46 1017.0
20260510143248 51 292 6.0 11.0 0.00 0.01 0.00 46 1017.0
20260510143131 51 340 5.0 11.0 0.00 0.01 0.00 48 1017.0
20260510143012 51 306 3.0 8.0 0.00 0.01 0.00 48 1017.0
20260510142850 50 14 3.0 8.0 0.00 0.01 0.00 46 1017.0
20260510142731 50 315 6.0 8.0 0.00 0.01 0.00 46 1017.0
20260510142614 51 302 6.0 8.0 0.00 0.01 0.00 47 1016.9
20260510142440 51 288 3.0 7.0 0.00 0.01 0.00 47 1016.9
20260510142317 50 342 2.0 8.0 0.00 0.01 0.00 49 1016.9
20260510142155 50 360 1.0 8.0 0.00 0.01 0.00 49 1016.9
20260510142037 50 332 2.0 9.0 0.00 0.01 0.00 48 1016.9
20260510141857 50 286 3.0 9.0 0.00 0.01 0.00 47 1016.9
20260510141714 50 284 3.0 10.0 0.00 0.01 0.00 48 1016.9
20260510141552 50 298 4.0 10.0 0.00 0.01 0.00 47 1016.9
20260510141430 50 288 5.0 10.0 0.00 0.01 0.00 48 1017.0
20260510141307 50 300 6.0 10.0 0.00 0.01 0.00 49 1016.9
20260510141148 50 332 6.0 10.0 0.00 0.01 0.00 49 1016.9
20260510141026 50 341 5.0 10.0 0.00 0.01 0.00 50 1016.9
20260510140904 50 321 4.0 8.0 0.00 0.01 0.00 49 1016.8
20260510140742 50 315 5.0 8.0 0.00 0.01 0.00 49 1016.9
20260510140622 50 348 3.0 9.0 0.00 0.01 0.00 50 1016.8
20260510140500 50 310 2.0 9.0 0.00 0.01 0.00 51 1016.8
20260510140316 50 338 2.0 9.0 0.00 0.01 0.00 51 1016.8
20260510140153 49 288 4.0 9.0 0.00 0.01 0.00 49 1016.8
20260510140036 49 288 4.0 9.0 0.00 0.01 0.00 50 1016.8
20260510135913 49 298 4.0 9.0 0.00 0.01 0.00 50 1016.9
20260510135751 49 340 3.0 10.0 0.00 0.01 0.00 50 1016.8
20260510135630 49 325 4.0 10.0 0.00 0.01 0.00 50 1016.8
20260510135507 49 298 5.0 11.0 0.00 0.01 0.00 50 1016.8
20260510135348 49 313 5.0 11.0 0.00 0.01 0.00 51 1016.9
20260510135205 49 317 4.0 11.0 0.00 0.01 0.00 51 1016.9
20260510135043 49 304 7.0 11.0 0.00 0.01 0.00 49 1016.8
20260510134859 49 304 7.0 11.0 0.00 0.01 0.00 50 1016.7
20260510134739 49 259 5.0 11.0 0.00 0.01 0.00 51 1016.8
20260510134556 49 317 4.0 9.0 0.00 0.01 0.00 51 1016.7
20260510134433 49 311 6.0 9.0 0.00 0.01 0.00 51 1016.7
20260510134315 49 288 6.0 9.0 0.00 0.01 0.00 51 1016.7
20260510134157 49 293 4.0 7.0 0.00 0.01 0.00 53 1016.7
20260510134014 49 239 2.0 5.0 0.00 0.01 0.00 55 1016.6
20260510133851 49 327 3.0 5.0 0.00 0.01 0.00 55 1016.6
20260510133708 49 355 3.0 6.0 0.00 0.01 0.00 54 1016.7
20260510133534 49 318 4.0 6.0 0.00 0.01 0.00 55 1016.7
20260510133412 48 5 3.0 7.0 0.00 0.01 0.00 55 1016.7
20260510133249 48 15 1.0 7.0 0.00 0.01 0.00 54 1016.7
20260510133106 48 265 3.0 7.0 0.00 0.01 0.00 54 1016.7
20260510132931 48 284 4.0 7.0 0.00 0.01 0.00 54 1016.7
20260510132814 48 325 2.0 7.0 0.00 0.01 0.00 54 1016.7
20260510132651 48 336 3.0 7.0 0.00 0.01 0.00 56 1016.7
20260510132529 48 309 2.0 6.0 0.00 0.01 0.00 56 1016.6
20260510132407 48 292 3.0 6.0 0.00 0.01 0.00 55 1016.6
20260510132248 48 271 4.0 6.0 0.00 0.01 0.00 55 1016.7
20260510132126 48 301 4.0 6.0 0.00 0.01 0.00 55 1016.7
20260510132003 48 315 4.0 6.0 0.00 0.01 0.00 55 1016.7
20260510131841 48 340 4.0 5.0 0.00 0.01 0.00 56 1016.7
20260510131723 48 321 3.0 8.0 0.00 0.01 0.00 56 1016.7
20260510131602 48 290 2.0 8.0 0.00 0.01 0.00 56 1016.7
20260510131439 48 316 1.0 8.0 0.00 0.01 0.00 56 1016.6
20260510131317 48 325 2.0 8.0 0.00 0.01 0.00 57 1016.6
20260510131144 47 305 4.0 8.0 0.00 0.01 0.00 57 1016.7
20260510131020 47 317 4.0 8.0 0.00 0.01 0.00 57 1016.6
20260510130838 47 335 2.0 6.0 0.00 0.01 0.00 57 1016.6
20260510130720 47 341 2.0 6.0 0.00 0.01 0.00 57 1016.6
20260510130541 47 13 3.0 6.0 0.00 0.01 0.00 58 1016.6
20260510130417 47 288 1.0 5.0 0.00 0.01 0.00 58 1016.5
20260510130254 47 312 1.0 5.0 0.00 0.01 0.00 59 1016.5
20260510130111 47 323 3.0 6.0 0.00 0.01 0.00 59 1016.5
20260510125953 47 303 3.0 6.0 0.00 0.01 0.00 60 1016.4
20260510125834 47 304 3.0 6.0 0.00 0.01 0.00 60 1016.5
20260510125712 47 328 2.0 6.0 0.00 0.01 0.00 60 1016.4
20260510125554 46 51 2.0 6.0 0.00 0.01 0.00 60 1016.4
20260510125433 46 35 4.0 6.0 0.00 0.01 0.00 60 1016.4
20260510125252 46 59 3.0 6.0 0.00 0.01 0.00 60 1016.4
20260510125129 46 13 4.0 6.0 0.00 0.01 0.00 60 1016.4
20260510125007 46 336 4.0 6.0 0.00 0.01 0.00 61 1016.4
20260510124807 46 347 4.0 6.0 0.00 0.01 0.00 61 1016.4
20260510124648 46 319 4.0 6.0 0.00 0.01 0.00 61 1016.4
20260510124504 46 315 3.0 6.0 0.00 0.01 0.00 60 1016.3
20260510124341 46 296 4.0 7.0 0.00 0.01 0.00 60 1016.4
20260510124216 46 294 4.0 7.0 0.00 0.01 0.00 60 1016.3
20260510124053 46 319 4.0 7.0 0.00 0.01 0.00 61 1016.3
20260510123936 46 321 3.0 7.0 0.00 0.01 0.00 61 1016.3
20260510123814 46 340 3.0 7.0 0.00 0.01 0.00 61 1016.3
20260510123651 46 289 5.0 7.0 0.00 0.01 0.00 61 1016.2
20260510123532 46 292 5.0 7.0 0.00 0.01 0.00 61 1016.2
20260510123413 45 304 4.0 7.0 0.00 0.01 0.00 62 1016.2
20260510123209 45 303 3.0 5.0 0.00 0.01 0.00 63 1016.2
20260510123045 45 327 3.0 5.0 0.00 0.01 0.00 63 1016.2
20260510122924 45 319 3.0 5.0 0.00 0.01 0.00 63 1016.1
20260510122744 45 306 3.0 5.0 0.00 0.01 0.00 63 1016.1
20260510122627 45 306 3.0 5.0 0.00 0.01 0.00 64 1016.1
20260510122443 45 315 3.0 5.0 0.00 0.01 0.00 64 1016.1
20260510122325 45 338 2.0 5.0 0.00 0.01 0.00 65 1016.1
20260510122203 45 355 1.0 5.0 0.00 0.01 0.00 66 1016.0
20260510122024 45 327 2.0 5.0 0.00 0.01 0.00 66 1016.0
20260510121902 45 330 2.0 5.0 0.00 0.01 0.00 67 1016.0
20260510121740 45 329 2.0 3.0 0.00 0.01 0.00 68 1016.0
20260510121556 45 326 1.0 2.0 0.00 0.01 0.00 69 1016.0
20260510121438 44 342 0.0 2.0 0.00 0.01 0.00 69 1016.0
20260510121259 44 340 0.0 1.0 0.00 0.01 0.00 70 1016.0
20260510121136 44 340 0.0 1.0 0.00 0.01 0.00 70 1016.0
20260510121016 44 340 0.0 1.0 0.00 0.01 0.00 70 1016.0
20260510120858 44 340 0.0 1.0 0.00 0.01 0.00 70 1016.0
20260510120739 44 340 0.0 1.0 0.00 0.01 0.00 70 1016.0
20260510120617 44 340 0.0 1.0 0.00 0.01 0.00 70 1015.9
20260510120455 44 340 0.0 1.0 0.00 0.01 0.00 70 1016.0
20260510120333 43 340 0.0 1.0 0.00 0.01 0.00 70 1016.0
20260510120215 43 340 0.0 0.0 0.00 0.01 0.00 70 1016.0
20260510120056 43 340 0.0 0.0 0.00 0.01 0.00 71 1015.9
20260510115938 43 340 0.0 0.0 0.00 0.01 0.00 71 1015.8
20260510115816 43 340 0.0 0.0 0.00 0.01 0.00 71 1015.8
20260510115657 43 340 0.0 0.0 0.00 0.01 0.00 71 1015.8
20260510115535 43 340 0.0 0.0 0.00 0.01 0.00 72 1015.8
20260510115413 43 340 0.0 0.0 0.00 0.01 0.00 72 1015.8
20260510115251 42 340 0.0 1.0 0.00 0.01 0.00 72 1015.7
20260510115133 42 340 0.0 1.0 0.00 0.01 0.00 72 1015.7
20260510114950 42 340 0.0 1.0 0.00 0.01 0.00 72 1015.7
20260510114828 42 340 0.0 1.0 0.00 0.01 0.00 73 1015.7
20260510114648 42 340 0.0 1.0 0.00 0.01 0.00 73 1015.7
20260510114529 42 340 0.0 1.0 0.00 0.01 0.00 73 1015.6
20260510114411 42 340 0.0 0.0 0.00 0.01 0.00 73 1015.6
20260510114249 42 340 0.0 0.0 0.00 0.01 0.00 73 1015.5
20260510114127 42 340 0.0 0.0 0.00 0.01 0.00 73 1015.5
20260510114005 42 340 0.0 0.0 0.00 0.01 0.00 74 1015.5
20260510113826 42 340 0.0 0.0 0.00 0.01 0.00 75 1015.6
20260510113704 41 340 0.0 0.0 0.00 0.01 0.00 75 1015.5
20260510113542 41 340 0.0 0.0 0.00 0.01 0.00 75 1015.5
20260510113419 41 340 0.0 0.0 0.00 0.01 0.00 76 1015.5
20260510113245 41 340 0.0 0.0 0.00 0.01 0.00 76 1015.4
20260510113102 41 340 0.0 0.0 0.00 0.01 0.00 76 1015.4
20260510112940 41 340 0.0 0.0 0.00 0.01 0.00 76 1015.4
20260510112818 40 340 0.0 0.0 0.00 0.01 0.00 77 1015.3
20260510112700 40 340 0.0 0.0 0.00 0.01 0.00 77 1015.4
20260510112538 40 340 0.0 0.0 0.00 0.01 0.00 77 1015.4
20260510112355 40 340 0.0 0.0 0.00 0.01 0.00 77 1015.3
20260510112237 39 340 0.0 0.0 0.00 0.01 0.00 77 1015.3
20260510112115 39 340 0.0 0.0 0.00 0.01 0.00 77 1015.3
20260510111957 39 340 0.0 0.0 0.00 0.01 0.00 77 1015.3
20260510111839 39 340 0.0 0.0 0.00 0.01 0.00 77 1015.3
20260510111716 39 340 0.0 0.0 0.00 0.01 0.00 77 1015.3
20260510111555 39 340 0.0 0.0 0.00 0.01 0.00 78 1015.2
20260510111437 39 340 0.0 0.0 0.00 0.01 0.00 78 1015.2
20260510111253 38 340 0.0 0.0 0.00 0.01 0.00 78 1015.2
20260510111131 38 341 0.0 0.0 0.00 0.01 0.00 77 1015.2
20260510111008 38 340 0.0 0.0 0.00 0.01 0.00 77 1015.2
20260510110833 38 340 0.0 0.0 0.00 0.01 0.00 77 1015.2
20260510110710 38 340 0.0 0.0 0.00 0.01 0.00 77 1015.2
20260510110548 38 340 0.0 0.0 0.00 0.01 0.00 77 1015.2
20260510110426 38 340 0.0 0.0 0.00 0.01 0.00 77 1015.2
20260510110308 38 340 0.0 0.0 0.00 0.01 0.00 77 1015.2
20260510110130 38 341 0.0 0.0 0.00 0.01 0.00 77 1015.1
20260510110007 38 340 0.0 0.0 0.00 0.01 0.00 78 1015.1
20260510105844 38 340 0.0 0.0 0.00 0.01 0.00 78 1015.1
20260510105711 38 340 0.0 0.0 0.00 0.01 0.00 78 1015.1
20260510105528 37 341 0.0 0.0 0.00 0.01 0.00 78 1015.0
20260510105406 37 340 0.0 0.0 0.00 0.01 0.00 77 1015.0
20260510105244 37 341 0.0 0.0 0.00 0.01 0.00 77 1015.0
20260510105127 37 340 0.0 0.0 0.00 0.01 0.00 77 1015.0
20260510104948 37 340 0.0 0.0 0.00 0.01 0.00 77 1015.0
20260510104826 37 340 0.0 0.0 0.00 0.01 0.00 77 1015.0
20260510104704 37 340 0.0 0.0 0.00 0.01 0.00 77 1015.0
20260510104546 37 341 0.0 0.0 0.00 0.01 0.00 77 1015.0
20260510104426 37 341 0.0 0.0 0.00 0.01 0.00 77 1014.9
20260510104305 37 340 0.0 0.0 0.00 0.01 0.00 77 1014.9
20260510104121 37 340 0.0 0.0 0.00 0.01 0.00 76 1014.9
20260510103938 37 341 0.0 0.0 0.00 0.01 0.00 76 1014.8
20260510103758 37 340 0.0 0.0 0.00 0.01 0.00 76 1014.8
20260510103614 37 340 0.0 0.0 0.00 0.01 0.00 75 1014.8
20260510103457 37 340 0.0 0.0 0.00 0.01 0.00 75 1014.8
20260510103313 38 340 0.0 0.0 0.00 0.01 0.00 75 1014.7
20260510103151 38 340 0.0 0.0 0.00 0.01 0.00 75 1014.8
20260510103032 38 340 0.0 0.0 0.00 0.01 0.00 75 1014.7
20260510102910 38 340 0.0 0.0 0.00 0.01 0.00 75 1014.8
20260510102730 38 340 0.0 0.0 0.00 0.01 0.00 75 1014.7
20260510102608 38 341 0.0 0.0 0.00 0.01 0.00 74 1014.7
20260510102450 38 340 0.0 0.0 0.00 0.01 0.00 74 1014.7
20260510102328 38 341 0.0 0.0 0.00 0.01 0.00 74 1014.7
20260510102206 38 341 0.0 0.0 0.00 0.01 0.00 74 1014.7
20260510102044 38 340 0.0 0.0 0.00 0.01 0.00 74 1014.6
20260510101925 38 341 0.0 0.0 0.00 0.01 0.00 74 1014.6
20260510101742 38 340 0.0 0.0 0.00 0.01 0.00 74 1014.6
20260510101619 38 340 0.0 0.0 0.00 0.01 0.00 74 1014.5
20260510101456 38 340 0.0 0.0 0.00 0.01 0.00 74 1014.5
20260510101317 38 340 0.0 0.0 0.00 0.01 0.00 74 1014.5
20260510101159 38 340 0.0 0.0 0.00 0.01 0.00 73 1014.5
20260510101037 38 340 0.0 0.0 0.00 0.01 0.00 73 1014.5
20260510100915 38 340 0.0 0.0 0.00 0.01 0.00 73 1014.5
20260510100752 38 340 0.0 0.0 0.00 0.01 0.00 73 1014.5
20260510100613 38 340 0.0 0.0 0.00 0.01 0.00 73 1014.5
20260510100451 38 340 0.0 0.0 0.00 0.01 0.00 73 1014.5
20260510100308 38 340 0.0 0.0 0.00 0.01 0.00 73 1014.5
20260510100145 38 340 0.0 0.0 0.00 0.01 0.00 72 1014.5
20260510100026 39 340 0.0 0.0 0.00 0.01 0.00 72 1014.5
20260510095904 39 340 0.0 0.0 0.00 0.01 0.00 72 1014.5
20260510095742 39 340 0.0 0.0 0.00 0.01 0.00 72 1014.5
20260510095620 39 340 0.0 0.0 0.00 0.01 0.00 72 1014.5
20260510095456 39 340 0.0 0.0 0.00 0.01 0.00 71 1014.5
20260510095338 39 340 0.0 0.0 0.00 0.01 0.00 71 1014.5
20260510095221 39 340 0.0 0.0 0.00 0.01 0.00 71 1014.4
20260510095058 39 341 0.0 0.0 0.00 0.01 0.00 70 1014.4
20260510094941 39 340 0.0 0.0 0.00 0.01 0.00 70 1014.4
20260510094802 39 341 0.0 0.0 0.00 0.01 0.00 70 1014.4
20260510094642 39 341 0.0 0.0 0.00 0.01 0.00 70 1014.3
20260510094457 39 340 0.0 0.0 0.00 0.01 0.00 70 1014.4
20260510094335 39 340 0.0 0.0 0.00 0.01 0.00 70 1014.4
20260510094216 39 341 0.0 0.0 0.00 0.01 0.00 70 1014.3
20260510094053 39 341 0.0 0.0 0.00 0.01 0.00 70 1014.3
20260510093931 40 340 0.0 0.0 0.00 0.01 0.00 70 1014.2
20260510093809 40 340 0.0 0.0 0.00 0.01 0.00 70 1014.3
20260510093647 40 340 0.0 0.0 0.00 0.01 0.00 70 1014.2
20260510093529 40 340 0.0 0.0 0.00 0.01 0.00 70 1014.2
20260510093346 40 340 0.0 0.0 0.00 0.01 0.00 69 1014.1
20260510093223 40 340 0.0 0.0 0.00 0.01 0.00 69 1014.1
20260510093040 40 341 0.0 0.0 0.00 0.01 0.00 69 1014.1
20260510092920 40 341 0.0 0.0 0.00 0.01 0.00 69 1014.1
20260510092758 40 340 0.0 0.0 0.00 0.01 0.00 68 1014.1
20260510092640 40 340 0.0 0.0 0.00 0.01 0.00 68 1014.1
20260510092518 40 340 0.0 0.0 0.00 0.01 0.00 68 1014.0
20260510092345 40 340 0.0 0.0 0.00 0.01 0.00 67 1014.0
20260510092222 40 340 0.0 0.0 0.00 0.01 0.00 67 1014.0
20260510092038 40 340 0.0 0.0 0.00 0.01 0.00 67 1014.0
20260510091916 40 340 0.0 0.0 0.00 0.01 0.00 67 1014.0
20260510091737 40 340 0.0 0.0 0.00 0.01 0.00 66 1014.0
20260510091614 40 340 0.0 0.0 0.00 0.01 0.00 66 1014.0
20260510091452 41 340 0.0 0.0 0.00 0.01 0.00 65 1013.9
20260510091329 41 340 0.0 0.0 0.00 0.01 0.00 65 1013.9
20260510091206 41 340 0.0 0.0 0.00 0.01 0.00 65 1013.9
20260510091048 41 341 0.0 0.0 0.00 0.01 0.00 64 1013.9
20260510090925 41 340 0.0 0.0 0.00 0.01 0.00 64 1013.8
20260510090803 41 340 0.0 0.0 0.00 0.01 0.00 64 1013.8
20260510090641 41 340 0.0 0.0 0.00 0.01 0.00 64 1013.8
20260510090523 42 340 0.0 0.0 0.00 0.01 0.00 64 1013.7
20260510090340 42 340 0.0 0.0 0.00 0.01 0.00 64 1013.7
20260510090222 42 341 0.0 0.0 0.00 0.01 0.00 64 1013.6
20260510090100 42 341 0.0 0.0 0.00 0.01 0.00 64 1013.6
20260510085941 42 341 0.0 0.0 0.00 0.01 0.00 64 1013.5
20260510085819 42 340 0.0 0.0 0.00 0.01 0.00 64 1013.5
20260510085656 42 340 0.0 0.0 0.00 0.01 0.00 64 1013.5
20260510085535 42 340 0.0 0.0 0.00 0.01 0.00 63 1013.5
20260510085412 42 340 0.0 0.0 0.00 0.01 0.00 63 1013.5
20260510085255 42 340 0.0 0.0 0.00 0.01 0.00 62 1013.4
20260510085132 42 340 0.0 0.0 0.00 0.01 0.00 62 1013.4
20260510085010 42 340 0.0 0.0 0.00 0.01 0.00 62 1013.3
20260510084853 42 340 0.0 0.0 0.00 0.01 0.00 62 1013.3
20260510084713 42 340 0.0 0.0 0.00 0.01 0.00 62 1013.3
20260510084552 42 340 0.0 0.0 0.00 0.01 0.00 62 1013.3
20260510084434 43 340 0.0 0.0 0.00 0.01 0.00 62 1013.3
20260510084311 43 341 0.0 0.0 0.00 0.01 0.00 62 1013.3
20260510084153 43 340 0.0 0.0 0.00 0.01 0.00 61 1013.3
20260510084029 43 340 0.0 2.0 0.00 0.01 0.00 61 1013.3
20260510083907 42 341 0.0 3.0 0.00 0.01 0.00 61 1013.3
20260510083745 42 340 0.0 3.0 0.00 0.01 0.00 61 1013.3
20260510083627 42 341 0.0 3.0 0.00 0.01 0.00 61 1013.2
20260510083509 42 340 0.0 4.0 0.00 0.01 0.00 61 1013.3
20260510083347 42 340 1.0 4.0 0.00 0.01 0.00 61 1013.3
20260510083229 42 340 1.0 4.0 0.00 0.01 0.00 61 1013.2
20260510083106 42 338 1.0 4.0 0.00 0.01 0.00 61 1013.3
20260510082947 43 336 1.0 4.0 0.00 0.01 0.00 61 1013.3
20260510082826 43 347 1.0 4.0 0.00 0.01 0.00 61 1013.2
20260510082706 43 341 0.0 3.0 0.00 0.01 0.00 60 1013.2
20260510082544 43 333 0.0 3.0 0.00 0.01 0.00 60 1013.2
20260510082405 43 333 1.0 3.0 0.00 0.01 0.00 60 1013.2
20260510082247 43 333 2.0 3.0 0.00 0.01 0.00 60 1013.2
20260510082128 43 333 1.0 3.0 0.00 0.01 0.00 60 1013.2
20260510081945 43 333 0.0 3.0 0.00 0.01 0.00 60 1013.2
20260510081823 43 333 0.0 3.0 0.00 0.01 0.00 59 1013.1
20260510081705 43 331 1.0 4.0 0.00 0.01 0.00 59 1013.1
20260510081542 43 331 1.0 4.0 0.00 0.01 0.00 59 1013.1
20260510081420 43 331 1.0 4.0 0.00 0.01 0.00 59 1013.1
20260510081258 43 328 1.0 4.0 0.00 0.01 0.00 59 1013.0
20260510081118 43 336 2.0 5.0 0.00 0.01 0.00 59 1013.0
20260510080934 43 323 2.0 5.0 0.00 0.01 0.00 59 1013.0
20260510080812 43 348 2.0 5.0 0.00 0.01 0.00 59 1013.0
20260510080628 43 342 2.0 5.0 0.00 0.01 0.00 59 1012.9
20260510080449 44 338 2.0 5.0 0.00 0.01 0.00 59 1012.9
20260510080327 44 355 2.0 5.0 0.00 0.01 0.00 59 1012.8
20260510080204 44 355 3.0 5.0 0.00 0.01 0.00 59 1012.8
20260510080042 44 342 3.0 5.0 0.00 0.01 0.00 59 1012.8
20260510075859 44 341 3.0 5.0 0.00 0.01 0.00 59 1012.8
20260510075739 44 360 2.0 5.0 0.00 0.01 0.00 59 1012.8
20260510075617 44 325 2.0 5.0 0.00 0.01 0.00 59 1012.7
20260510075459 44 333 3.0 6.0 0.00 0.01 0.00 59 1012.7
20260510075338 44 344 2.0 6.0 0.00 0.01 0.00 59 1012.7
20260510075158 44 360 3.0 6.0 0.00 0.01 0.00 58 1012.7
20260510075015 44 355 3.0 6.0 0.00 0.01 0.00 59 1012.6
20260510074853 44 336 3.0 6.0 0.00 0.01 0.00 59 1012.6
20260510074735 44 343 3.0 6.0 0.00 0.01 0.00 59 1012.6
20260510074617 44 344 3.0 6.0 0.00 0.01 0.00 59 1012.6
20260510074454 44 355 3.0 6.0 0.00 0.01 0.00 59 1012.6
20260510074335 44 336 2.0 6.0 0.00 0.01 0.00 59 1012.6
20260510074213 44 325 4.0 6.0 0.00 0.01 0.00 59 1012.5
20260510074049 44 348 3.0 6.0 0.00 0.01 0.00 59 1012.5
20260510073930 44 5 3.0 6.0 0.00 0.01 0.00 60 1012.5
20260510073807 44 336 4.0 6.0 0.00 0.01 0.00 60 1012.5
20260510073646 45 317 3.0 6.0 0.00 0.01 0.00 59 1012.5
20260510073525 45 333 2.0 6.0 0.00 0.01 0.00 60 1012.4
20260510073330 45 323 2.0 6.0 0.00 0.01 0.00 60 1012.3
20260510073212 45 331 2.0 6.0 0.00 0.01 0.00 60 1012.3
20260510073050 45 360 3.0 6.0 0.00 0.01 0.00 60 1012.3
20260510072927 45 5 3.0 7.0 0.00 0.01 0.00 60 1012.2
20260510072807 45 5 4.0 7.0 0.00 0.01 0.00 60 1012.2
20260510072629 45 15 4.0 7.0 0.00 0.01 0.00 60 1012.1
20260510072506 45 5 3.0 7.0 0.00 0.01 0.00 60 1012.1
20260510072348 45 18 3.0 7.0 0.00 0.01 0.00 60 1012.1
20260510072208 45 336 4.0 7.0 0.00 0.01 0.00 60 1012.1
20260510072047 45 340 3.0 6.0 0.00 0.01 0.00 60 1012.1
20260510071924 45 347 3.0 6.0 0.00 0.01 0.00 60 1012.0
20260510071801 45 336 4.0 6.0 0.00 0.01 0.00 60 1012.0
20260510071637 45 360 3.0 6.0 0.00 0.01 0.00 60 1012.0
20260510071518 45 355 3.0 6.0 0.00 0.01 0.00 60 1011.9
20260510071356 46 9 3.0 6.0 0.00 0.01 0.00 60 1011.9
20260510071233 46 338 4.0 6.0 0.00 0.01 0.00 60 1011.9
20260510071110 46 15 4.0 6.0 0.00 0.01 0.00 60 1011.9
20260510070952 46 20 3.0 6.0 0.00 0.01 0.00 60 1011.9
20260510070829 46 343 3.0 8.0 0.00 0.01 0.00 60 1011.8
20260510070707 46 348 3.0 8.0 0.00 0.01 0.00 60 1011.8
20260510070529 46 355 3.0 8.0 0.00 0.01 0.00 60 1011.8
20260510070409 46 355 3.0 8.0 0.00 0.01 0.00 60 1011.8
20260510070248 46 327 4.0 8.0 0.00 0.01 0.00 60 1011.7
20260510070130 46 355 5.0 8.0 0.00 0.01 0.00 59 1011.7
20260510065946 46 16 5.0 8.0 0.00 0.01 0.00 60 1011.7
20260510065823 46 31 4.0 8.0 0.00 0.01 0.00 60 1011.7
20260510065705 46 5 3.0 8.0 0.00 0.01 0.00 60 1011.7
20260510065542 46 321 5.0 8.0 0.00 0.01 0.00 60 1011.7
20260510065401 46 28 3.0 6.0 0.00 0.01 0.00 61 1011.7
20260510065239 46 20 2.0 5.0 0.00 0.01 0.00 61 1011.7
20260510065059 46 16 2.0 5.0 0.00 0.01 0.00 60 1011.6
20260510064940 47 17 2.0 6.0 0.00 0.01 0.00 60 1011.6
20260510064818 47 11 3.0 6.0 0.00 0.01 0.00 60 1011.5
20260510064640 47 27 3.0 6.0 0.00 0.01 0.00 60 1011.5
20260510064520 47 12 3.0 7.0 0.00 0.01 0.00 60 1011.4
20260510064357 47 349 3.0 7.0 0.00 0.01 0.00 60 1011.4
20260510064239 47 31 3.0 7.0 0.00 0.01 0.00 60 1011.4
20260510064117 47 9 2.0 7.0 0.00 0.01 0.00 60 1011.4
20260510063955 47 339 2.0 7.0 0.00 0.01 0.00 60 1011.4
20260510063837 47 24 4.0 7.0 0.00 0.01 0.00 60 1011.3
20260510063658 47 338 3.0 6.0 0.00 0.01 0.00 60 1011.3
20260510063515 47 53 4.0 6.0 0.00 0.01 0.00 60 1011.3
20260510063353 47 36 4.0 6.0 0.00 0.01 0.00 60 1011.3
20260510063235 47 355 3.0 6.0 0.00 0.01 0.00 59 1011.3
20260510063113 47 5 2.0 6.0 0.00 0.01 0.00 59 1011.3
20260510062951 47 25 3.0 6.0 0.00 0.01 0.00 59 1011.3
20260510062829 47 343 3.0 6.0 0.00 0.01 0.00 59 1011.3
20260510062710 48 344 4.0 6.0 0.00 0.01 0.00 59 1011.3
20260510062526 48 44 4.0 7.0 0.00 0.01 0.00 59 1011.2
20260510062404 48 36 4.0 7.0 0.00 0.01 0.00 59 1011.2
20260510062243 48 5 3.0 7.0 0.00 0.01 0.00 59 1011.1
20260510062059 48 5 3.0 8.0 0.00 0.01 0.00 59 1011.2
20260510061940 48 338 2.0 8.0 0.00 0.01 0.00 59 1011.2
20260510061822 48 355 4.0 8.0 0.00 0.01 0.00 59 1011.1
20260510061617 48 24 4.0 8.0 0.00 0.01 0.00 59 1011.0
20260510061454 48 44 4.0 8.0 0.00 0.01 0.00 59 1011.0
20260510061336 48 10 4.0 8.0 0.00 0.01 0.00 59 1011.0
20260510061214 48 24 3.0 7.0 0.00 0.01 0.00 59 1011.0
20260510061035 48 57 4.0 7.0 0.00 0.01 0.00 59 1011.0
20260510060916 48 334 4.0 7.0 0.00 0.01 0.00 59 1010.9
20260510060740 48 5 4.0 8.0 0.00 0.01 0.00 59 1010.9
20260510060618 48 5 4.0 8.0 0.00 0.01 0.00 59 1010.8
20260510060455 48 35 4.0 8.0 0.00 0.01 0.00 59 1010.8
20260510060337 48 355 3.0 10.0 0.00 0.01 0.00 59 1010.8
20260510060218 49 33 3.0 10.0 0.00 0.01 0.00 59 1010.8
20260510060050 49 24 5.0 10.0 0.00 0.01 0.00 59 1010.7
20260510055935 49 27 5.0 10.0 0.00 0.01 0.00 59 1010.8
20260510055837 49 26 5.0 10.0 0.00 0.01 0.00 59 1010.8
20260510055739 49 36 4.0 10.0 0.00 0.01 0.00 60 1010.7
20260510055625 49 24 5.0 10.0 0.00 0.01 0.00 60 1010.7
20260510055527 49 52 5.0 10.0 0.00 0.01 0.00 60 1010.7
20260510055429 49 346 3.0 7.0 0.00 0.01 0.00 60 1010.7
20260510055332 49 360 4.0 9.0 0.00 0.01 0.00 60 1010.7
20260510055234 49 342 5.0 9.0 0.00 0.01 0.00 60 1010.7
20260510055136 49 43 4.0 9.0 0.00 0.01 0.00 61 1010.7
20260510055022 49 346 4.0 9.0 0.00 0.01 0.00 61 1010.6
20260510054944 49 355 4.0 9.0 0.00 0.01 0.00 62 1010.6
20260510054826 49 30 3.0 9.0 0.00 0.01 0.00 62 1010.5
20260510054748 49 5 3.0 9.0 0.00 0.01 0.00 62 1010.5
20260510054629 49 9 3.0 9.0 0.00 0.01 0.00 62 1010.5
20260510054530 49 24 4.0 9.0 0.00 0.01 0.00 62 1010.5
20260510054431 49 39 5.0 9.0 0.00 0.01 0.00 62 1010.5
20260510054353 49 42 4.0 9.0 0.00 0.01 0.00 63 1010.5
20260510054254 49 355 5.0 8.0 0.00 0.01 0.00 63 1010.5
20260510054140 49 27 4.0 8.0 0.00 0.01 0.00 64 1010.5
20260510054022 49 32 1.0 8.0 0.00 0.01 0.00 64 1010.4
20260510053945 49 355 2.0 8.0 0.00 0.01 0.00 64 1010.4
20260510053826 49 355 3.0 8.0 0.00 0.01 0.00 64 1010.4
20260510053729 49 319 4.0 8.0 0.00 0.01 0.00 64 1010.4
20260510053631 49 360 5.0 8.0 0.00 0.01 0.00 64 1010.4
20260510053553 49 355 4.0 8.0 0.00 0.01 0.00 64 1010.4
20260510053459 49 360 3.0 7.0 0.00 0.01 0.00 64 1010.3
20260510053400 49 360 3.0 6.0 0.00 0.01 0.00 65 1010.3
20260510053221 49 355 4.0 6.0 0.00 0.01 0.00 65 1010.2
20260510053123 49 12 4.0 7.0 0.00 0.01 0.00 65 1010.2
20260510053045 49 355 3.0 7.0 0.00 0.01 0.00 66 1010.2
20260510052926 49 16 3.0 8.0 0.00 0.01 0.00 66 1010.2
20260510052848 49 5 3.0 8.0 0.00 0.01 0.00 66 1010.1
20260510052749 49 339 3.0 9.0 0.00 0.01 0.00 66 1010.1
20260510052651 49 342 4.0 9.0 0.00 0.01 0.00 67 1010.1
20260510052535 48 320 4.0 9.0 0.00 0.01 0.00 67 1010.1
20260510052437 48 348 4.0 9.0 0.00 0.01 0.00 68 1010.2
20260510052339 48 355 4.0 9.0 0.00 0.01 0.00 68 1010.1
20260510052221 48 338 5.0 9.0 0.00 0.01 0.00 68 1010.1
20260510052124 48 346 5.0 9.0 0.00 0.01 0.00 69 1010.0
20260510052026 48 320 4.0 9.0 0.00 0.01 0.00 69 1010.1
20260510051932 48 329 3.0 9.0 0.00 0.01 0.00 70 1010.1
20260510051854 48 331 2.0 4.0 0.00 0.01 0.00 70 1010.0
20260510051735 48 318 2.0 4.0 0.00 0.01 0.00 70 1010.1
20260510051637 48 310 1.0 4.0 0.00 0.01 0.00 70 1010.1
20260510051539 48 340 1.0 4.0 0.00 0.01 0.00 70 1010.1
20260510051421 48 334 1.0 4.0 0.00 0.01 0.00 70 1010.1
20260510051328 48 319 0.0 0.0 0.00 0.01 0.00 70 1010.0
20260510051229 48 319 0.0 0.0 0.00 0.01 0.00 70 1010.0
20260510051152 48 319 0.0 0.0 0.00 0.01 0.00 70 1010.0
20260510051032 48 318 0.0 0.0 0.00 0.01 0.00 70 1010.0
20260510050935 48 318 0.0 0.0 0.00 0.01 0.00 70 1009.9
20260510050837 48 318 0.0 0.0 0.00 0.01 0.00 70 1010.0
20260510050740 48 318 0.0 0.0 0.00 0.01 0.00 70 1009.9
20260510050625 49 318 0.0 0.0 0.00 0.01 0.00 69 1009.9
20260510050528 49 318 0.0 0.0 0.00 0.01 0.00 69 1009.8
20260510050429 49 318 0.0 0.0 0.00 0.01 0.00 69 1009.9
20260510050331 49 318 0.0 0.0 0.00 0.01 0.00 69 1009.9
20260510050234 49 318 0.0 0.0 0.00 0.01 0.00 69 1009.8
20260510050136 49 318 0.0 0.0 0.00 0.01 0.00 69 1009.8
20260510050022 49 318 0.0 0.0 0.00 0.01 0.00 68 1009.7
20260510045925 49 318 0.0 0.0 0.00 0.01 0.00 68 1009.7
20260510045827 49 318 0.0 0.0 0.00 0.01 0.00 68 1009.7
20260510045730 49 318 0.0 0.0 0.00 0.01 0.00 68 1009.7
20260510045631 49 318 0.0 0.0 0.00 0.01 0.00 68 1009.7
20260510045534 49 318 0.0 0.0 0.00 0.01 0.00 68 1009.6
20260510045440 49 318 0.0 0.0 0.00 0.01 0.00 68 1009.6
20260510045322 49 318 0.0 0.0 0.00 0.01 0.00 67 1009.5
20260510045224 49 318 0.0 0.0 0.00 0.01 0.00 67 1009.6
20260510045127 49 318 0.0 0.0 0.00 0.01 0.00 67 1009.5
20260510045029 49 318 0.0 0.0 0.00 0.01 0.00 67 1009.5
20260510044951 49 318 0.0 0.0 0.00 0.01 0.00 67 1009.5
20260510044852 49 318 0.0 0.0 0.00 0.01 0.00 67 1009.5
20260510044738 49 318 0.0 0.0 0.00 0.01 0.00 67 1009.5
20260510044640 49 318 0.0 0.0 0.00 0.01 0.00 66 1009.5
20260510044521 50 318 0.0 0.0 0.00 0.01 0.00 66 1009.4
20260510044424 50 318 0.0 0.0 0.00 0.01 0.00 66 1009.5
20260510044326 50 318 0.0 0.0 0.00 0.01 0.00 66 1009.4
20260510044248 50 318 0.0 0.0 0.00 0.01 0.00 65 1009.4
20260510044129 50 318 0.0 0.0 0.00 0.01 0.00 65 1009.4
20260510044035 50 318 0.0 0.0 0.00 0.01 0.00 65 1009.4
20260510043938 50 318 0.0 0.0 0.00 0.01 0.00 65 1009.4
20260510043840 50 318 0.0 0.0 0.00 0.01 0.00 65 1009.4
20260510043743 51 318 0.0 0.0 0.00 0.01 0.00 65 1009.4
20260510043624 51 318 0.0 0.0 0.00 0.01 0.00 64 1009.4
20260510043527 51 318 0.0 0.0 0.00 0.01 0.00 64 1009.4
20260510043433 51 318 0.0 0.0 0.00 0.01 0.00 64 1009.4
20260510043355 51 318 0.0 0.0 0.00 0.01 0.00 64 1009.3
20260510043236 51 318 0.0 0.0 0.00 0.01 0.00 64 1009.4
20260510043138 51 318 0.0 0.0 0.00 0.01 0.00 63 1009.3
20260510043021 51 318 0.0 0.0 0.00 0.01 0.00 63 1009.4
20260510042923 51 318 0.0 0.0 0.00 0.01 0.00 63 1009.3
20260510042825 51 318 0.0 0.0 0.00 0.01 0.00 63 1009.3
20260510042731 52 318 0.0 0.0 0.00 0.01 0.00 63 1009.3
20260510042632 52 318 0.0 0.0 0.00 0.01 0.00 62 1009.3
20260510042534 52 318 0.0 0.0 0.00 0.01 0.00 62 1009.3
20260510042437 52 318 0.0 0.0 0.00 0.01 0.00 62 1009.3
20260510042339 52 318 0.0 0.0 0.00 0.01 0.00 62 1009.3
20260510042221 52 318 0.0 0.0 0.00 0.01 0.00 61 1009.2
20260510042144 52 318 0.0 0.0 0.00 0.01 0.00 61 1009.2
20260510042049 52 318 0.0 0.0 0.00 0.01 0.00 61 1009.2
20260510041930 52 318 0.0 0.0 0.00 0.01 0.00 61 1009.2
20260510041832 53 318 0.0 0.0 0.00 0.01 0.00 61 1009.2
20260510041734 53 318 0.0 0.0 0.00 0.01 0.00 61 1009.2
20260510041636 53 318 0.0 0.0 0.00 0.01 0.00 60 1009.2
20260510041559 53 318 0.0 0.0 0.00 0.01 0.00 60 1009.2
20260510041500 53 318 0.0 0.0 0.00 0.01 0.00 60 1009.1
20260510041401 53 318 0.0 0.0 0.00 0.01 0.00 60 1009.1
20260510041246 53 318 0.0 0.0 0.00 0.01 0.00 60 1009.1
20260510041128 53 318 0.0 0.0 0.00 0.01 0.00 59 1009.1
20260510041030 53 318 0.0 0.0 0.00 0.01 0.00 59 1009.1
20260510040951 53 318 0.0 0.0 0.00 0.01 0.00 59 1009.0
20260510040832 53 318 0.0 0.0 0.00 0.01 0.00 59 1009.0
20260510040755 53 318 0.0 0.0 0.00 0.01 0.00 58 1009.0
20260510040636 53 318 0.0 0.0 0.00 0.01 0.00 58 1009.0
20260510040523 53 318 0.0 0.0 0.00 0.01 0.00 57 1008.9
20260510040445 53 318 0.0 0.0 0.00 0.01 0.00 57 1008.9
20260510040327 53 318 0.0 0.0 0.00 0.01 0.00 57 1008.9
20260510040229 53 318 0.0 0.0 0.00 0.01 0.00 57 1008.9
20260510040131 53 318 0.0 0.0 0.00 0.01 0.00 57 1008.9
20260510040055 53 318 0.0 0.0 0.00 0.01 0.00 57 1008.8
20260510040017 53 318 0.0 0.0 0.00 0.01 0.00 57 1008.8
20260510035855 54 318 0.0 0.0 0.00 0.01 0.00 57 1008.8
20260510035737 54 318 0.0 0.0 0.00 0.01 0.00 57 1008.7
20260510035615 54 318 0.0 0.0 0.00 0.01 0.00 57 1008.8
20260510035453 54 318 0.0 0.0 0.00 0.01 0.00 58 1008.8
20260510035330 54 318 0.0 0.0 0.00 0.01 0.00 58 1008.8
20260510035212 54 318 0.0 0.0 0.00 0.01 0.00 58 1008.8
20260510035050 54 318 0.0 0.0 0.00 0.01 0.00 57 1008.8
20260510034928 54 318 0.0 0.0 0.00 0.01 0.00 57 1008.8
20260510034806 54 318 0.0 0.0 0.00 0.01 0.00 56 1008.8
20260510034647 54 318 0.0 0.0 0.00 0.01 0.00 56 1008.7
20260510034524 54 318 0.0 0.0 0.00 0.01 0.01 56 1008.7
20260510034341 54 318 0.0 0.0 0.00 0.01 0.01 56 1008.7
20260510034218 54 318 0.0 0.0 0.00 0.01 0.01 56 1008.6
20260510034056 54 318 0.0 0.0 0.00 0.01 0.01 56 1008.6
20260510033917 54 318 0.0 0.0 0.00 0.01 0.01 56 1008.6
20260510033733 54 318 0.0 0.0 0.00 0.01 0.01 56 1008.6
20260510033616 54 318 0.0 0.0 0.00 0.01 0.01 56 1008.6
20260510033453 54 318 0.0 0.0 0.00 0.01 0.01 55 1008.6
20260510033314 54 318 0.0 0.0 0.00 0.01 0.01 55 1008.6
20260510033151 54 318 0.0 0.0 0.00 0.01 0.01 55 1008.6
20260510033034 54 318 0.0 0.0 0.00 0.01 0.01 55 1008.5
20260510032912 54 318 0.0 1.0 0.00 0.01 0.01 55 1008.5
20260510032753 54 318 0.0 1.0 0.00 0.01 0.01 55 1008.5
20260510032636 54 318 0.0 1.0 0.00 0.01 0.01 55 1008.5
20260510032452 54 318 0.0 1.0 0.00 0.01 0.01 55 1008.5
20260510032330 54 318 0.0 1.0 0.00 0.01 0.01 54 1008.5
20260510032209 54 318 0.0 1.0 0.00 0.01 0.01 54 1008.4
20260510032050 54 318 0.0 1.0 0.00 0.01 0.01 54 1008.4
20260510031928 55 319 0.0 2.0 0.00 0.01 0.01 54 1008.4
20260510031806 55 319 0.0 2.0 0.00 0.01 0.01 54 1008.4
20260510031644 55 319 0.0 2.0 0.00 0.01 0.01 54 1008.4
20260510031526 55 319 0.0 3.0 0.00 0.01 0.01 54 1008.4
20260510031404 55 319 0.0 3.0 0.00 0.01 0.01 54 1008.4
20260510031242 55 319 0.0 4.0 0.00 0.01 0.01 54 1008.3
20260510031124 55 318 0.0 4.0 0.00 0.01 0.01 54 1008.3
20260510030950 55 321 1.0 4.0 0.00 0.01 0.01 53 1008.3
20260510030828 55 317 2.0 4.0 0.00 0.01 0.01 53 1008.3
20260510030706 55 321 2.0 4.0 0.00 0.01 0.01 53 1008.2
20260510030544 55 322 1.0 4.0 0.00 0.01 0.01 53 1008.2
20260510030426 55 303 1.0 4.0 0.00 0.01 0.01 53 1008.2
20260510030304 55 318 0.0 4.0 0.00 0.01 0.01 53 1008.2
20260510030143 55 331 0.0 4.0 0.00 0.01 0.01 53 1008.2
20260510030000 55 331 1.0 4.0 0.00 0.01 0.01 52 1008.1
20260510025837 56 325 0.0 3.0 0.00 0.01 0.01 52 1008.1
20260510025719 56 326 1.0 4.0 0.00 0.01 0.01 52 1008.1
20260510025536 56 321 1.0 4.0 0.00 0.01 0.01 52 1008.1
20260510025413 56 321 1.0 4.0 0.00 0.01 0.01 52 1008.2
20260510025230 56 321 1.0 4.0 0.00 0.01 0.01 52 1008.1
20260510025112 56 323 2.0 4.0 0.00 0.01 0.01 52 1008.1
20260510024954 56 309 1.0 3.0 0.00 0.01 0.01 52 1008.1
20260510024812 56 314 1.0 4.0 0.00 0.01 0.01 51 1008.0
20260510024628 56 313 1.0 4.0 0.00 0.01 0.01 51 1008.0
20260510024509 56 325 1.0 4.0 0.00 0.01 0.01 51 1008.0
20260510024325 56 321 1.0 5.0 0.00 0.01 0.01 51 1008.0
20260510024203 56 323 1.0 7.0 0.00 0.01 0.01 51 1008.0
20260510024041 56 323 2.0 7.0 0.00 0.01 0.01 51 1008.0
20260510023923 56 323 2.0 7.0 0.00 0.01 0.01 50 1007.9
20260510023805 56 304 2.0 7.0 0.00 0.01 0.01 50 1007.9
20260510023643 57 315 2.0 7.0 0.00 0.01 0.01 50 1008.0
20260510023525 57 319 4.0 7.0 0.00 0.01 0.01 50 1007.9
20260510023403 57 301 4.0 7.0 0.00 0.01 0.01 50 1007.9
20260510023245 57 296 3.0 8.0 0.00 0.01 0.01 50 1007.9
20260510023122 57 307 4.0 9.0 0.00 0.01 0.01 50 1007.9
20260510023000 57 312 4.0 10.0 0.00 0.01 0.01 50 1007.8
20260510022840 57 298 4.0 10.0 0.00 0.01 0.01 50 1007.7
20260510022722 57 333 4.0 10.0 0.00 0.01 0.01 50 1007.6
20260510022559 57 300 4.0 10.0 0.00 0.01 0.01 50 1007.6
20260510022415 57 300 5.0 10.0 0.00 0.01 0.01 50 1007.6
20260510022253 57 317 6.0 10.0 0.00 0.01 0.01 50 1007.6
20260510022129 57 297 4.0 9.0 0.00 0.01 0.01 50 1007.4
20260510022010 57 329 5.0 9.0 0.00 0.01 0.01 49 1007.4
20260510021848 57 313 4.0 8.0 0.00 0.01 0.01 49 1007.4
20260510021726 57 344 3.0 8.0 0.00 0.01 0.01 49 1007.4
20260510021607 57 313 4.0 8.0 0.00 0.01 0.01 49 1007.4
20260510021433 57 338 3.0 8.0 0.00 0.01 0.01 49 1007.4
20260510021310 57 15 3.0 8.0 0.00 0.01 0.01 49 1007.4
20260510021126 57 5 4.0 8.0 0.00 0.01 0.01 48 1007.3
20260510021004 57 348 4.0 7.0 0.00 0.01 0.01 48 1007.3
20260510020846 57 349 3.0 5.0 0.00 0.01 0.01 49 1007.3
20260510020703 58 342 2.0 7.0 0.00 0.01 0.01 48 1007.2
20260510020541 58 333 2.0 8.0 0.00 0.01 0.01 48 1007.2
20260510020417 58 336 2.0 8.0 0.00 0.01 0.01 48 1007.1
20260510020243 58 340 3.0 8.0 0.00 0.01 0.01 48 1007.0
20260510020100 58 343 3.0 8.0 0.00 0.01 0.01 48 1007.0
20260510015937 58 355 4.0 9.0 0.00 0.01 0.01 47 1007.0
20260510015756 58 360 4.0 9.0 0.00 0.01 0.01 47 1007.0
20260510015622 58 346 5.0 9.0 0.00 0.01 0.01 47 1006.9
20260510015500 58 271 3.0 12.0 0.00 0.01 0.01 47 1007.0
20260510015337 58 348 4.0 12.0 0.00 0.01 0.01 47 1006.9
20260510015214 59 330 4.0 13.0 0.00 0.01 0.01 47 1006.9
20260510015040 59 335 5.0 13.0 0.00 0.01 0.01 47 1006.9
20260510014857 59 336 4.0 13.0 0.00 0.01 0.01 46 1006.9
20260510014734 59 289 7.0 13.0 0.00 0.01 0.01 46 1006.9
20260510014556 59 301 7.0 13.0 0.00 0.01 0.01 45 1006.8
20260510014422 59 22 8.0 13.0 0.00 0.01 0.01 46 1006.7
20260510014301 59 9 8.0 12.0 0.00 0.01 0.01 45 1006.7
20260510014118 59 11 6.0 11.0 0.00 0.01 0.01 46 1006.6
20260510013937 59 312 5.0 11.0 0.00 0.01 0.01 46 1006.5
20260510013758 60 339 6.0 15.0 0.00 0.01 0.01 45 1006.4
20260510013635 60 331 5.0 15.0 0.00 0.01 0.01 46 1006.4
20260510013512 60 300 5.0 15.0 0.00 0.01 0.01 46 1006.3
20260510013333 60 360 4.0 15.0 0.00 0.01 0.01 46 1006.2
20260510013211 60 343 5.0 15.0 0.00 0.01 0.01 45 1006.2
20260510013052 60 304 7.0 15.0 0.00 0.01 0.01 45 1006.2
20260510012935 60 346 7.0 15.0 0.00 0.01 0.01 46 1006.1
20260510012812 60 316 5.0 15.0 0.00 0.01 0.01 46 1006.0
20260510012651 60 271 8.0 15.0 0.00 0.01 0.01 46 1005.9
20260510012512 60 329 8.0 15.0 0.00 0.01 0.01 47 1005.9
20260510012348 61 333 6.0 15.0 0.00 0.01 0.01 48 1005.9
20260510012226 61 327 4.0 11.0 0.00 0.01 0.01 47 1005.8
20260510012108 61 360 4.0 11.0 0.00 0.01 0.01 47 1005.8
20260510011949 61 360 5.0 11.0 0.00 0.01 0.01 47 1005.7
20260510011810 61 292 6.0 11.0 0.00 0.01 0.01 47 1005.6
20260510011648 61 304 6.0 11.0 0.00 0.01 0.01 48 1005.6
20260510011505 61 343 5.0 11.0 0.00 0.01 0.01 47 1005.5
20260510011330 61 360 5.0 11.0 0.00 0.01 0.01 48 1005.5
20260510011211 61 329 5.0 14.0 0.00 0.01 0.01 48 1005.4
20260510011007 61 313 5.0 14.0 0.00 0.01 0.01 47 1005.4
20260510010843 62 327 5.0 14.0 0.00 0.01 0.01 47 1005.3
20260510010723 62 338 5.0 14.0 0.00 0.01 0.01 47 1005.3
20260510010605 62 298 6.0 14.0 0.00 0.01 0.01 47 1005.1
20260510010422 62 281 5.0 12.0 0.00 0.01 0.01 47 1005.1
20260510010300 62 298 5.0 12.0 0.00 0.01 0.01 47 1005.0
20260510010117 62 322 5.0 12.0 0.00 0.01 0.01 47 1005.0
20260510005936 62 343 6.0 17.0 0.00 0.01 0.01 47 1005.0
20260510005813 62 306 6.0 17.0 0.00 0.01 0.01 47 1004.9
20260510005649 62 302 6.0 17.0 0.00 0.01 0.01 47 1004.9
20260510005527 62 294 5.0 17.0 0.00 0.01 0.01 47 1004.7
20260510005408 62 290 6.0 17.0 0.00 0.01 0.01 47 1004.8
20260510005246 62 301 9.0 17.0 0.00 0.01 0.01 47 1004.7
20260510005123 62 290 7.0 11.0 0.00 0.01 0.01 47 1004.7
20260510005001 62 10 5.0 10.0 0.00 0.01 0.01 47 1004.6
20260510004820 62 297 6.0 10.0 0.00 0.01 0.01 47 1004.7
20260510004701 62 283 6.0 11.0 0.00 0.01 0.01 48 1004.6
20260510004540 62 330 7.0 11.0 0.00 0.01 0.01 47 1004.6
20260510004420 62 292 6.0 11.0 0.00 0.01 0.01 48 1004.6
20260510004258 63 288 6.0 11.0 0.00 0.01 0.01 48 1004.5
20260510004139 63 331 6.0 11.0 0.00 0.01 0.01 48 1004.5
20260510004017 63 346 4.0 11.0 0.00 0.01 0.01 48 1004.4
20260510003855 63 355 4.0 10.0 0.00 0.01 0.01 48 1004.4
20260510003732 63 328 6.0 12.0 0.00 0.01 0.01 48 1004.4
20260510003614 63 332 4.0 13.0 0.00 0.01 0.01 49 1004.3
20260510003452 63 319 4.0 15.0 0.00 0.01 0.01 48 1004.3
20260510003329 63 314 5.0 15.0 0.00 0.01 0.01 48 1004.3
20260510003149 63 297 6.0 15.0 0.00 0.01 0.01 48 1004.2
20260510003005 64 314 6.0 15.0 0.00 0.01 0.01 48 1004.2
20260510002847 64 350 8.0 15.0 0.00 0.01 0.01 47 1004.1
20260510002725 64 346 8.0 15.0 0.00 0.01 0.01 48 1004.1
20260510002602 64 320 6.0 11.0 0.00 0.01 0.01 48 1004.1
20260510002440 64 322 6.0 11.0 0.00 0.01 0.01 48 1004.0
20260510002301 64 306 5.0 10.0 0.00 0.01 0.01 48 1004.0
20260510002141 64 300 4.0 10.0 0.00 0.01 0.01 48 1004.0
20260510002019 64 325 6.0 10.0 0.00 0.01 0.01 47 1003.9
20260510001835 64 302 3.0 6.0 0.00 0.01 0.01 47 1003.9
20260510001716 64 287 4.0 6.0 0.00 0.01 0.01 47 1003.8
20260510001554 64 313 3.0 6.0 0.00 0.01 0.01 47 1003.8
20260510001432 64 296 3.0 6.0 0.00 0.01 0.01 48 1003.8
20260510001310 64 338 3.0 6.0 0.00 0.01 0.01 48 1003.7
20260510001148 64 346 4.0 6.0 0.00 0.01 0.01 47 1003.7
20260510001029 64 327 2.0 6.0 0.00 0.01 0.01 48 1003.7
20260510000846 64 321 3.0 6.0 0.00 0.01 0.01 47 1003.7
20260510000723 64 333 3.0 6.0 0.00 0.01 0.01 47 1003.7
20260510000600 64 292 3.0 6.0 0.00 0.01 0.01 47 1003.7
20260510000442 65 311 4.0 6.0 0.00 0.01 0.01 46 1003.7
20260510000258 65 293 2.0 5.0 0.00 0.01 0.01 47 1003.7
20260510000115 65 298 2.0 7.0 0.00 0.01 0.01 46 1003.7
20260509235936 65 298 2.0 8.0 0.00 0.01 0.01 46 1003.7
20260509235818 65 311 2.0 8.0 0.00 0.01 0.01 46 1003.7
20260509235655 65 292 2.0 8.0 0.00 0.01 0.01 46 1003.6
20260509235532 65 317 3.0 10.0 0.00 0.01 0.01 45 1003.6
20260509235415 65 288 5.0 13.0 0.00 0.01 0.01 45 1003.6
20260509235231 65 323 5.0 13.0 0.00 0.01 0.01 45 1003.6
20260509235112 65 303 3.0 13.0 0.00 0.01 0.01 45 1003.6
20260509234949 65 323 3.0 13.0 0.00 0.01 0.01 45 1003.5
20260509234826 65 298 6.0 13.0 0.00 0.01 0.01 45 1003.5
20260509234704 65 317 7.0 13.0 0.00 0.01 0.01 44 1003.5
20260509234545 65 310 4.0 10.0 0.00 0.01 0.01 45 1003.5
20260509234421 65 246 5.0 13.0 0.00 0.01 0.01 45 1003.5
20260509234259 65 295 7.0 13.0 0.00 0.01 0.01 44 1003.5
20260509234137 65 284 7.0 13.0 0.00 0.01 0.01 44 1003.4
20260509234019 65 325 5.0 13.0 0.00 0.01 0.01 44 1003.4
20260509233836 65 248 5.0 13.0 0.00 0.01 0.01 44 1003.4
20260509233712 65 306 7.0 13.0 0.00 0.01 0.01 44 1003.4
20260509233550 65 289 4.0 13.0 0.00 0.01 0.01 44 1003.4
20260509233428 65 275 4.0 14.0 0.00 0.01 0.01 44 1003.4
20260509233248 66 281 6.0 14.0 0.00 0.01 0.01 43 1003.4
20260509233131 66 250 6.0 14.0 0.00 0.01 0.01 43 1003.3
20260509233006 66 277 6.0 14.0 0.00 0.01 0.01 43 1003.3
20260509232846 66 246 6.0 14.0 0.00 0.01 0.01 43 1003.3
20260509232712 66 296 9.0 14.0 0.00 0.01 0.01 43 1003.3
20260509232550 66 257 8.0 14.0 0.00 0.01 0.01 43 1003.3
20260509232428 66 279 6.0 11.0 0.00 0.01 0.01 43 1003.3
20260509232310 66 249 5.0 11.0 0.00 0.01 0.01 44 1003.3
20260509232152 66 302 5.0 12.0 0.00 0.01 0.01 43 1003.3
20260509232033 66 302 6.0 12.0 0.00 0.01 0.01 43 1003.3
20260509231911 66 270 5.0 12.0 0.00 0.01 0.01 43 1003.3
20260509231748 66 302 6.0 12.0 0.00 0.01 0.01 43 1003.3
20260509231629 66 296 7.0 15.0 0.00 0.01 0.01 43 1003.3
20260509231507 66 290 7.0 15.0 0.00 0.01 0.01 43 1003.2
20260509231324 66 324 7.0 15.0 0.00 0.01 0.01 43 1003.3
20260509231202 66 269 4.0 15.0 0.00 0.01 0.01 43 1003.3
20260509231018 66 277 6.0 15.0 0.00 0.01 0.01 43 1003.3
20260509230900 66 289 8.0 15.0 0.00 0.01 0.01 43 1003.3
20260509230716 66 305 5.0 14.0 0.00 0.01 0.01 43 1003.3
20260509230554 66 286 6.0 14.0 0.00 0.01 0.01 42 1003.2
20260509230433 66 283 9.0 15.0 0.00 0.01 0.01 42 1003.3
20260509230253 66 295 7.0 15.0 0.00 0.01 0.01 42 1003.3
20260509230131 66 273 8.0 15.0 0.00 0.01 0.01 42 1003.3
20260509230013 66 290 9.0 15.0 0.00 0.01 0.01 42 1003.3
20260509225850 66 288 8.0 16.0 0.00 0.01 0.01 42 1003.3
20260509225711 66 296 11.0 16.0 0.00 0.01 0.01 42 1003.3
20260509225549 66 298 10.0 16.0 0.00 0.01 0.01 42 1003.3
20260509225431 66 280 9.0 16.0 0.00 0.01 0.01 42 1003.3
20260509225313 66 311 10.0 18.0 0.00 0.01 0.01 42 1003.3
20260509225135 66 288 8.0 18.0 0.00 0.01 0.01 41 1003.3
20260509225016 66 254 11.0 18.0 0.00 0.01 0.01 41 1003.2
20260509224859 66 284 9.0 18.0 0.00 0.01 0.01 41 1003.2
20260509224715 67 296 9.0 21.0 0.00 0.01 0.01 41 1003.2
20260509224530 67 292 11.0 22.0 0.00 0.01 0.01 41 1003.2
20260509224412 67 300 11.0 22.0 0.00 0.01 0.01 41 1003.2
20260509224233 67 290 9.0 22.0 0.00 0.01 0.01 41 1003.2
20260509224049 67 271 11.0 22.0 0.00 0.01 0.01 41 1003.2
20260509223925 67 302 13.0 22.0 0.00 0.01 0.01 41 1003.2
20260509223731 67 263 7.0 21.0 0.00 0.01 0.01 40 1003.3
20260509223609 67 291 8.0 21.0 0.00 0.01 0.01 41 1003.2
20260509223450 67 217 10.0 21.0 0.00 0.01 0.01 41 1003.2
20260509223328 67 254 12.0 21.0 0.00 0.01 0.01 40 1003.1
20260509223209 67 265 13.0 21.0 0.00 0.01 0.01 40 1003.1
20260509223046 67 315 9.0 20.0 0.00 0.01 0.01 41 1003.1
20260509222923 67 288 9.0 20.0 0.00 0.01 0.01 41 1003.2
20260509222801 67 271 10.0 20.0 0.00 0.01 0.01 41 1003.0
20260509222643 67 306 11.0 20.0 0.00 0.01 0.01 41 1003.0
20260509222503 67 288 8.0 20.0 0.00 0.01 0.01 41 1003.1
20260509222320 67 262 7.0 22.0 0.00 0.01 0.01 40 1003.1
20260509222157 67 308 12.0 24.0 0.00 0.01 0.01 40 1003.0
20260509222038 67 295 12.0 24.0 0.00 0.01 0.01 40 1003.0
20260509221920 67 291 13.0 24.0 0.00 0.01 0.01 39 1003.0
20260509221801 67 290 14.0 24.0 0.00 0.01 0.01 39 1002.9
20260509221618 67 280 12.0 24.0 0.00 0.01 0.01 39 1002.9
20260509221500 67 274 13.0 24.0 0.00 0.01 0.01 40 1003.0
20260509221327 67 262 12.0 24.0 0.00 0.01 0.01 39 1003.0
20260509221209 67 295 13.0 25.0 0.00 0.01 0.01 40 1003.0
20260509221046 67 295 15.0 25.0 0.00 0.01 0.01 39 1002.9
20260509220905 67 297 11.0 25.0 0.00 0.01 0.01 40 1002.9
20260509220746 67 296 10.0 25.0 0.00 0.01 0.01 40 1002.9
20260509220603 67 288 16.0 25.0 0.00 0.01 0.01 39 1002.8
20260509220440 67 286 16.0 25.0 0.00 0.01 0.01 39 1002.8
20260509220318 67 284 14.0 28.0 0.00 0.01 0.01 39 1002.8
20260509220155 67 265 14.0 28.0 0.00 0.01 0.01 39 1002.7
20260509220036 67 311 13.0 28.0 0.00 0.01 0.01 39 1002.8
20260509215914 67 288 11.0 28.0 0.00 0.01 0.01 39 1002.8
20260509215752 67 320 9.0 28.0 0.00 0.01 0.01 39 1002.8
20260509215629 67 268 15.0 29.0 0.00 0.01 0.01 39 1002.7
20260509215457 67 310 18.0 30.0 0.00 0.01 0.01 39 1002.7
20260509215340 67 304 17.0 30.0 0.00 0.01 0.01 38 1002.7
20260509215216 67 246 11.0 30.0 0.00 0.01 0.01 38 1002.7
20260509215054 67 306 14.0 30.0 0.00 0.01 0.01 38 1002.7
20260509214936 67 304 19.0 30.0 0.00 0.01 0.01 37 1002.7
20260509214814 67 294 16.0 30.0 0.00 0.01 0.01 37 1002.7
20260509214635 67 295 18.0 28.0 0.00 0.01 0.01 37 1002.7
20260509214515 67 304 17.0 28.0 0.00 0.01 0.01 37 1002.7
20260509214356 67 288 15.0 28.0 0.00 0.01 0.01 37 1002.7
20260509214237 68 290 16.0 31.0 0.00 0.01 0.01 37 1002.6